WetterOnline ( https://www.wetteronline.de )

Wetter aktuell Monserrato

Aktuelles Wetter: Capo Bellavista (150m)

6-stündlich | Neueste Meldungen
Ortszeit Temperatur Wetter
Sa, 18.05. 20:00 20.8° C wolkig
Sa, 18.05. 14:00 23.0° C fast wolkenlos
Sa, 18.05. 8:00 18.0° C wolkig
Sa, 18.05. 2:00 18.0° C wolkenlos
Fr, 17.05. 20:00 20.2° C wolkenlos
Fr, 17.05. 14:00 25.4° C fast wolkenlos
Fr, 17.05. 8:00 18.0° C fast wolkenlos
Fr, 17.05. 2:00 18.6° C leicht bewölkt
Ortszeit Temperatur Wetter
So, 19.05. 1:00 18.8° C bedeckt
So, 19.05. 0:00 19.0° C wolkig
Sa, 18.05. 23:00 18.8° C leicht bewölkt
Sa, 18.05. 22:00 18.6° C bedeckt
Sa, 18.05. 21:00 19.6° C wolkig
Sa, 18.05. 20:00 20.8° C wolkig
Sa, 18.05. 19:00 22.6° C fast wolkenlos
Ortszeit Relative Feuchte Sichtweite
Sa, 18.05. 20:00 85% 16 km
Sa, 18.05. 14:00 70% 25 km
Sa, 18.05. 8:00 81% 20 km
Sa, 18.05. 2:00 77% 20 km
Fr, 17.05. 20:00 75% 20 km
Fr, 17.05. 14:00 60% 30 km
Fr, 17.05. 8:00 50% 30 km
Fr, 17.05. 2:00 45% 25 km
Ortszeit Relative Feuchte Sichtweite
So, 19.05. 1:00 83% 4 km
So, 19.05. 0:00 84% 4 km
Sa, 18.05. 23:00 85% 4 km
Sa, 18.05. 22:00 85% 4 km
Sa, 18.05. 21:00 80% 4 km
Sa, 18.05. 20:00 85% 16 km
Sa, 18.05. 19:00 74% 20 km
Ortszeit Niederschlagsmenge Niederschlagsart
Sa, 18.05. 20:00 0.4 l/m2 in 12 Std. -
Sa, 18.05. 14:00 0.4 l/m2 in 6 Std. Gewitter, Regen
Sa, 18.05. 8:00 0.0 l/m2 in 12 Std. -
Sa, 18.05. 2:00 0.0 l/m2 in 6 Std. -
Fr, 17.05. 20:00 0.0 l/m2 in 12 Std. -
Fr, 17.05. 14:00 0.0 l/m2 in 6 Std. -
Fr, 17.05. 8:00 0.0 l/m2 in 12 Std. -
Fr, 17.05. 2:00 0.0 l/m2 in 6 Std. -
Ortszeit Niederschlagsmenge Niederschlagsart
So, 19.05. 1:00 keine Meldung -
So, 19.05. 0:00 keine Meldung -
Sa, 18.05. 23:00 keine Meldung -
Sa, 18.05. 22:00 keine Meldung -
Sa, 18.05. 21:00 keine Meldung -
Sa, 18.05. 20:00 keine Meldung -
Sa, 18.05. 19:00 keine Meldung -
Ortszeit Stärke Spitze Richtung
km/h Bft. km/h Grad Sektor
Sa, 18.05. 20:00 7 2 - 100° O
Sa, 18.05. 14:00 20 4 - 70° O
Sa, 18.05. 8:00 24 4 - 30° NO
Sa, 18.05. 2:00 15 3 - 280° W
Fr, 17.05. 20:00 6 1 - 170° S
Fr, 17.05. 14:00 17 3 - 120° SO
Fr, 17.05. 8:00 6 1 - 210° SW
Fr, 17.05. 2:00 7 2 - 30° NO
Ortszeit Stärke Spitze Richtung
km/h Bft. km/h Grad Sektor
So, 19.05. 1:00 7 2 - 300° NW
So, 19.05. 0:00 6 1 - 200° S
Sa, 18.05. 23:00 9 2 - 130° SO
Sa, 18.05. 22:00 13 3 - 60° NO
Sa, 18.05. 21:00 9 2 - 80° O
Sa, 18.05. 20:00 7 2 - 100° O
Sa, 18.05. 19:00 11 2 - 120° SO
Ortszeit Untergrenze Bedeckung Gattung
total tief tief mittel hoch
Sa, 18.05. 20:00 180 m 8/8 5/8 Cu - Ci
Sa, 18.05. 14:00 600 m 1/8 1/8 Cu - -
Sa, 18.05. 8:00 1200 m 7/8 2/8 Cu As -
Sa, 18.05. 2:00 - 0/8 0/8 - - -
Fr, 17.05. 20:00 - 0/8 0/8 - - -
Fr, 17.05. 14:00 900 m 1/8 1/8 Cu - -
Fr, 17.05. 8:00 300 m 1/8 1/8 St - -
Fr, 17.05. 2:00 6000 m 2/8 2/8 - - Ci
Ortszeit Bedeckungsgrad in Achtel und Wolkenuntergrenze
So, 19.05. 1:00 8(300m)
So, 19.05. 0:00 5(300m)
Sa, 18.05. 23:00 4(300m)
Sa, 18.05. 22:00 8(300m)
Sa, 18.05. 21:00 6(300m)
Sa, 18.05. 20:00 3(180m) 5(6000m)
Sa, 18.05. 19:00 1(600m)
Ortszeit Luftdruck NN (hPa) Tendenz (hPa in 3 Std.)
Sa, 18.05. 20:00 1011 - 0,2
Sa, 18.05. 14:00 1012 + 0,1
Sa, 18.05. 8:00 1011 0,0
Sa, 18.05. 2:00 1011 0,0
Fr, 17.05. 20:00 1011 0,0
Fr, 17.05. 14:00 1011 + 0,3
Fr, 17.05. 8:00 1011 + 0,4
Fr, 17.05. 2:00 1011 + 1,1
Ortszeit Luftdruck NN (hPa) Tendenz (hPa in 3 Std.)
So, 19.05. 1:00 1012 + 1,2
So, 19.05. 0:00 1012 + 1,1
Sa, 18.05. 23:00 1011 + 0,1
Sa, 18.05. 22:00 1011 + 0,1
Sa, 18.05. 21:00 1010 + 0,1
Sa, 18.05. 20:00 1011 - 0,2
Sa, 18.05. 19:00 1010 - 1,1
Ortszeit Schneehöhe (cm)
Sa, 18.05. 20:00 -
Sa, 18.05. 14:00 -
Sa, 18.05. 8:00 0
Sa, 18.05. 2:00 -
Fr, 17.05. 20:00 -
Fr, 17.05. 14:00 -
Fr, 17.05. 8:00 0
Fr, 17.05. 2:00 -
Ortszeit Schneehöhe (cm)
So, 19.05. 1:00 -
So, 19.05. 0:00 -
Sa, 18.05. 23:00 -
Sa, 18.05. 22:00 -
Sa, 18.05. 21:00 -
Sa, 18.05. 20:00 -
Sa, 18.05. 19:00 -
Link zu dieser Seite / Seite empfehlen

Das Wetter in ...